RYR9DK LDZA-EBCI

Flight info

Callsign RYR9DK
Flight time N/A
Altitude 36000
Route PODET DCT BERTA DCT EVAXI DCT BIRGI DCT KPT L608 MISGI Z104 ODVUX/N0448F280 Z104 GESLO N852 LNO
Aircraft A320/M-SDE3FGHIRWY/LB1

Departure

Time 2026-04-27 16:51
Airport Zagreb Franjo Tuđman International Airport (LDZA)

Arrival

Time N/A
Airport Brussels South Charleroi Airport (EBCI)
Time Latitude Longitude Altitude Speed Heading
2026-04-27 16:18 45.74289 16.08008 366 ft 0 kts 136°
2026-04-27 16:42 45.74290 16.08006 359 ft 2 kts 136°
2026-04-27 16:42 45.74309 16.07981 362 ft 4 kts 136°
2026-04-27 16:43 45.74328 16.07955 362 ft 3 kts 136°
2026-04-27 16:43 45.74343 16.07934 365 ft 4 kts 133°
2026-04-27 16:43 45.74361 16.07913 366 ft 2 kts 155°
2026-04-27 16:43 45.74380 16.07906 362 ft 1 kts 167°
2026-04-27 16:46 45.74376 16.07907 363 ft 2 kts 168°
2026-04-27 16:46 45.74356 16.07902 365 ft 4 kts 199°
2026-04-27 16:46 45.74326 16.07872 359 ft 7 kts 216°
2026-04-27 16:47 45.74283 16.07821 362 ft 9 kts 230°
2026-04-27 16:47 45.74241 16.07741 359 ft 11 kts 227°
2026-04-27 16:47 45.74185 16.07654 363 ft 13 kts 227°
2026-04-27 16:47 45.74119 16.07552 362 ft 15 kts 227°
2026-04-27 16:48 45.74064 16.07425 359 ft 16 kts 281°
2026-04-27 16:48 45.74141 16.07302 359 ft 18 kts 319°
2026-04-27 16:48 45.74212 16.07166 359 ft 17 kts 264°
2026-04-27 16:49 45.74048 16.06902 359 ft 20 kts 226°
2026-04-27 16:49 45.73948 16.06750 359 ft 22 kts 226°
2026-04-27 16:49 45.73839 16.06589 363 ft 24 kts 228°
2026-04-27 16:49 45.73760 16.06463 361 ft 11 kts 226°
2026-04-27 16:50 45.73761 16.06370 364 ft 11 kts 312°
2026-04-27 16:50 45.73819 16.06291 361 ft 12 kts 316°
2026-04-27 16:50 45.73893 16.06271 364 ft 13 kts 33°
2026-04-27 16:50 45.74029 16.06473 361 ft 59 kts 47°
2026-04-27 16:51 45.74467 16.07144 358 ft 121 kts 47°
2026-04-27 16:51 45.75125 16.08165 599 ft 145 kts 48°
2026-04-27 16:51 45.75818 16.09211 1201 ft 145 kts 46°
2026-04-27 16:51 45.76524 16.10253 1751 ft 148 kts 49°
2026-04-27 16:52 45.77284 16.11400 1962 ft 171 kts 49°
2026-04-27 16:52 45.78148 16.12734 2217 ft 194 kts 49°
2026-04-27 16:52 45.79130 16.14257 2423 ft 223 kts 49°
2026-04-27 16:52 45.80238 16.15987 2819 ft 248 kts 49°
2026-04-27 16:53 45.81448 16.17836 3569 ft 258 kts 45°
2026-04-27 16:53 45.83002 16.19121 4417 ft 266 kts 12°
2026-04-27 16:53 45.84817 16.18895 5328 ft 266 kts 335°
2026-04-27 16:53 45.86351 16.17416 6281 ft 265 kts 317°
2026-04-27 16:54 45.87634 16.15527 7212 ft 265 kts 310°
2026-04-27 16:54 45.88863 16.13523 8039 ft 269 kts 310°
2026-04-27 16:54 45.90120 16.11508 8878 ft 273 kts 311°
2026-04-27 16:54 45.91428 16.09513 9702 ft 277 kts 312°
2026-04-27 16:55 45.92804 16.07514 10295 ft 289 kts 313°
2026-04-27 16:55 45.94301 16.05414 10500 ft 312 kts 314°
2026-04-27 16:55 45.95930 16.03178 10647 ft 335 kts 315°
2026-04-27 16:55 45.97657 16.00847 11121 ft 345 kts 315°
2026-04-27 16:56 45.99430 15.98472 11781 ft 349 kts 316°